STARLINK-1723, 46333

Orbit data source: Space-Track

STARLINK-1723, 46333 is a payload satellite owned by SpaceX/Seattle (US) in LEO that was launched on Thu, 03 Sep 2020 UTC via an FALCON 9 launch vehicle from the Air Force Eastern Test Range (AFETR). Payload-class satellites include a variety of spacecraft equipped with specific instruments for various scientific and technological missions. These include communications satellites like Starlink; space stations such as the ISS; scientific satellites like the Hubble; Earth observation satellites from companies like Planet Labs, Umbra, and HawkEye 360; GPS; miniature CubeSats for education and research; and military/defense satellites.

Loading next visibility...
Identifier
46333, 2020-062J
Orbit
LEO
Country
Flag of USUS
Related business
Manufacturer
SpaceX/Seattle
Mission
Operational Commercial Communications
Bus & Motor
STARLINK, Unknown motor
Mass
260 kg wet, ~248 kg dry
Launch date (UTC)
2020-09-03 (5 years ago)
Launch vehicle
FALCON 9
Launch site
Air Force Eastern Test Range (AFETR)
Object type
Payload
Rocket body
Debris
Shape & HBR
Box + 1 Pan, 10.1 m
Radar Cross Section
13.562 m², Large (>1 m²)

Expand to show TLE details & history
Last TLE update: 7 hours ago

TLE from 7 hours ago
0 STARLINK-1723
1 46333U 20062J   25293.66671296  .00028427  00000-0  17058-2 0  9999
2 46333  53.0538 285.1733 0001612 104.7857 217.2182 15.10738310  5801
Epoch: 2025-10-20T16:00Z
TLE epoch observation values (Epoch: 2025-10-20T16:00:03.999Z)
Latitude
-29.6834°
Longitude
-9.44473°
Altitude
543.843 km
Speed
7.59 km/s
True Right ascension
17h 19m 45s
True Declination
-29° 31' 52"
Sunlit
Object was in daylight at epoch
Visualization orbit readout
Latitude
Unknown
Longitude
Unknown
Altitude
Unknown
Speed
Unknown
Apparent Right ascension
Unknown
Apparent Declination
Unknown
Sunlit
N/A
Visualization observer readout
Local Sidereal Time
18:02:58
Azimuth
Unknown
Elevation
Unknown
Doppler factor
Unknown
Orbital elements
Apogee altitude
535.333 km
Perigee altitude
533.104 km
Semi-major axis
6,912.355 km
Eccentricity
0.00016
Inclination
53.0538°
RAAN
285.1733°
Arg. of periapsis
104.7857°
True anomaly
217.20703°
Mean anomaly
217.2182°
Eccentric anomaly
217.21261°
Mean motion
3.77663 °/min
Orbital period
95.32 mins
BSTAR
0.0017058
Loading maneuver chart data...
Computing Atmospheric mass density...

Documentation

Showing up to 5 results
|